015  
ASUS41 KPHI 192112  
RWRPHI  
 
REGIONAL WEATHER ROUNDUP  
NATIONAL WEATHER SERVICE MOUNT HOLLY NJ  
400 PM EST TUE FEB 19 2019  
 
NOTE: "FAIR" INDICATES FEW OR NO CLOUDS BELOW 12,000 FEET WITH NO  
SIGNIFICANT WEATHER AND/OR S TO VISIBILITY
.  
 
* = STATION DOES NOT REPORT PRECIPITATION (E.G. RAIN, SNOW, ETC.)  
OR FOG.
 
 
NJZ015>026-192200-  
SOUTHERN NEW JERSEY  
 
CITY SKY/WX TMP DP RH WIND PRES REMARKS
 
POMONA FAIR 38 12 34 NW8 30.55S WCI 32  
WILDWOOD* FAIR 36 17 46 NW8G16 30.56F WCI 30  
MILLVILLE FAIR 37 13 37 NW9 30.55S WCI 30  
WRIGHTSTOWN FAIR 35 8 32 NW10 30.52F WCI 28  
MOUNT HOLLY FAIR 37 8 30 NW10 30.56F WCI 30  
TRENTON FAIR 37 9 31 NW9 30.55S WCI 30  
 

 
NJZ001>014-192200-  
NORTHERN NEW JERSEY  
 
CITY SKY/WX TMP DP RH WIND PRES REMARKS
 
SUSSEX FAIR 33 9 36 N9 30.52S WCI 25  
ANDOVER* N/A 32 6 33 VRB6 30.52S WCI 26  
MORRISTOWN PTSUNNY 36 9 32 NW9 30.56R WCI 29  
NEWARK PTSUNNY 37 4 25 NW12 30.54S WCI 29  
TETERBORO FAIR 36 9 32 N10G20 30.53S WCI 28  
CALDWELL FAIR 34 5 29 NW10 30.54S WCI 26  
SOMERVILLE FAIR 36 7 29 NW10 30.53F WCI 28  
ALLAIRE* FAIR 36 7 29 NW13 30.54F WCI 27  
TOMS RIVER* FAIR 35 10 35 W9 30.56S WCI 28  
 

 
PAZ043-044-047-054-055-060>062-066>071-192200-  
EASTERN PENNSYLVANIA  
 
CITY SKY/WX TMP DP RH WIND PRES REMARKS
 
PHILADELPHIA PTSUNNY 37 6 27 NW12 30.57S WCI 29  
NORTH PHILA FAIR 39 8 27 N13 30.57F WCI 31  
BLUE BELL* FAIR 34 10 37 NW6 30.56S WCI 29  
DOYLESTOWN FAIR 35 9 33 NW9 30.54F WCI 28  
QUAKERTOWN* SUNNY 34 9 35 NW8 30.55 WCI 27  
POTTSTOWN FAIR 34 10 37 NW9 30.57S WCI 27  
LANCASTER FAIR 35 10 35 NW7 30.55F WCI 29  
COATESVILLE FAIR 32 9 37 NW8 30.55R WCI 25  
READING FAIR 34 9 35 NW15 30.55F WCI 24  
ALLENTOWN FAIR 35 8 32 NW7 30.55F WCI 29  
MOUNT POCONO FAIR 23 7 50 NW10 30.45S WCI 12  
HAZLETON FAIR 30 9 40 W5 30.52R WCI 25  
LEHIGHTON FAIR 34 9 35 W6 30.55F WCI 29  
WILKES BARRE MIX PCPN 28 9 44 NW7 30.53F WCI 21  
 

 
DEZALL-MDZ008-012-015-019-020-192200-  
DELAWARE AND EASTERN MARYLAND  
 
CITY SKY/WX TMP DP RH WIND PRES REMARKS
 
WILMINGTON FAIR 36 9 32 NW12 30.58S WCI 28  
DOVER FAIR 38 11 32 NW10 30.56S WCI 31  
GEORGETOWN FAIR 41 10 28 N6 30.56F  
EASTON SUNNY 39 9 28 NW10 30.61F WCI 32  
ABERDEEN PTSUNNY 36 10 35 NW12 30.57F WCI 27  
PATUXENT PTSUNNY 38 15 39 NE7 30.58 WCI 33  
OCEAN CITY FAIR 37 25 61 NE10 30.56F WCI 30  
WALLOPS ISLAND FAIR 40 24 53 E7 30.57R  
SALISBURY FAIR 39 14 36 NW9 30.56F WCI 33  
 

 
PAZ001-021-NYZ056-072-MDZ011-DCZ001-192200-  
OTHER NEARBY LOCATIONS  
 
CITY SKY/WX TMP DP RH WIND PRES REMARKS
 
HARRISBURG PTSUNNY 34 5 29 NW9 30.56S WCI 27  
STATE COLLEGE SUNNY 30 9 40 W7 30.53F WCI 23  
WILLIAMSPORT FAIR 33 2 26 VRB6 30.56F WCI 28  
BINGHAMTON FAIR 19 6 57 NW9 30.49F WCI 8  
NEW YORK CITY FAIR 35 5 28 MISG 30.55S  
BALTIMORE PTSUNNY 40 7 25 NW8 30.56S WCI 34  
WASHINGTON DC PTSUNNY 42 8 24 N6 30.58F  
 

 
 
 
CLICK HERE TO GO TO PREVIOUS BULLETINS.

The Nexlab PA Page
The Nexlab NJ Page
The Nexlab DE Page
The Nexlab MD Page Main Text Page